"startDT [UTC]","vpos","CH4 [ppm]","stdev(CH4) [ppm]","CO2 [ppm]","stdev(CO2) [ppm]","H2O_reported [%]","stdev(H2O_reported)","CavityPressure [torr]","CavityTemp [C]","OutletValve","CH4_dry [ppm]","CO2_dry [ppm]","DasTemp [C]","EtalonTemp [C]","WarmBoxTemp [C]","MPVPosition","T_ECpre [C]","T_EC1 [C]","T_EC2 [C]","p_inlet [hPa]","p_in [hPa]","p_out [hPa]","T_inlet [C]","RH_inlet [%]","dwpt_inlet [C]","T_vent [C]","RH_vent [%]","dwpt_vent [C]","flow_vent [l min-1]","flow_inlet [l min-1]","dwpt_sample [C]","T_room [C]"
2015-07-02 00:00:00,0.0,1.89337,0.00033,393.489,0.077,0.9418,0.0034,140.001,45.000,32098.26026,1.91142,398.081,36.827,45.066,45.000,0.00,0.10,-272.71,-272.78,-2,660,-10,27.9,19.2,2.2,27.6,19.7,2.4,5.73,1.64,4.1,31.2
2015-07-02 00:01:00,0.0,1.89329,0.00040,393.306,0.113,0.9597,0.0078,140.004,45.000,32097.27238,1.91175,397.988,36.859,45.066,45.000,0.00,0.10,-272.71,-272.78,-4,660,-10,27.8,19.6,2.5,27.6,19.8,2.4,5.73,1.84,4.1,31.2
2015-07-02 00:02:00,0.0,1.89275,0.00052,393.340,0.108,0.9673,0.0053,140.001,45.000,32098.10203,1.91136,398.064,36.866,45.066,45.000,0.00,0.10,-272.72,-272.78,-3,660,-10,27.8,19.7,2.6,27.5,19.8,2.4,5.73,1.69,4.1,31.2
2015-07-02 00:03:00,0.0,1.89283,0.00045,393.393,0.152,0.9566,0.0054,140.001,45.000,32099.87438,1.91122,398.054,36.859,45.066,45.000,0.00,0.10,-272.72,-272.79,-2,660,-10,27.8,19.5,2.5,27.5,19.8,2.4,5.73,1.58,4.1,31.2
2015-07-02 00:04:00,0.0,1.89310,0.00054,393.350,0.119,0.9522,0.0091,140.003,45.000,32098.41673,1.91133,397.994,36.832,45.066,45.000,0.00,0.10,-272.71,-272.78,-4,660,-10,27.8,19.3,2.2,27.6,19.8,2.4,5.73,1.79,4.1,31.3
2015-07-02 00:05:00,0.0,1.89314,0.00046,393.398,0.113,0.9510,0.0050,140.004,45.000,32099.49962,1.91138,398.041,36.813,45.066,45.000,0.00,0.10,-272.72,-272.78,-3,660,-10,27.8,19.3,2.3,27.5,19.8,2.4,5.73,1.78,4.1,31.3
2015-07-02 00:06:00,0.0,1.89348,0.00046,393.421,0.077,0.9393,0.0058,139.998,45.000,32096.99053,1.91157,398.001,36.811,45.066,45.000,0.00,0.10,-272.72,-272.79,-2,660,-10,27.9,19.2,2.3,27.5,19.8,2.4,5.73,1.60,4.1,31.4
2015-07-02 00:07:00,0.0,1.89311,0.00035,393.328,0.096,0.9528,0.0035,140.000,45.000,32093.11137,1.91139,397.973,36.813,45.067,45.000,0.00,0.10,-272.71,-272.78,-4,659,-10,27.8,19.4,2.3,27.5,19.9,2.4,5.73,1.69,4.1,31.3
2015-07-02 00:08:00,0.0,1.89249,0.00058,393.401,0.089,0.9550,0.0064,139.997,45.000,32098.62930,1.91087,398.058,36.815,45.067,45.000,0.00,0.10,-272.72,-272.78,-3,660,-10,27.8,19.5,2.4,27.5,19.9,2.5,5.73,1.84,4.1,31.2
2015-07-02 00:09:00,0.0,1.89271,0.00046,393.308,0.087,0.9494,0.0024,140.002,45.000,32100.16780,1.91091,397.943,36.838,45.067,45.001,0.00,0.10,-272.72,-272.79,-3,660,-10,27.8,19.3,2.3,27.5,19.9,2.5,5.73,1.66,4.1,31.2
2015-07-02 00:10:00,0.0,1.89279,0.00049,393.366,0.069,0.9582,0.0041,139.998,45.000,32099.67971,1.91121,398.037,36.861,45.067,45.000,0.00,0.10,-272.72,-272.79,-4,660,-10,27.8,19.6,2.5,27.5,19.9,2.5,5.73,1.59,4.1,31.2
2015-07-02 00:11:00,0.0,1.89291,0.00040,393.370,0.099,0.9472,0.0099,140.000,45.000,32099.25340,1.91109,397.991,36.869,45.067,45.000,0.00,0.10,-272.71,-272.77,-3,659,-10,27.8,19.2,2.2,27.5,20.0,2.5,5.73,1.81,4.1,31.3
2015-07-02 00:12:00,0.0,1.89301,0.00049,393.336,0.133,0.9509,0.0023,139.996,45.000,32097.60331,1.91126,397.973,36.871,45.066,45.000,0.00,0.10,-272.72,-272.78,-3,660,-10,27.8,19.4,2.3,27.5,20.0,2.6,5.73,1.78,4.1,31.3
2015-07-02 00:13:00,0.0,1.89301,0.00026,393.369,0.085,0.9419,0.0058,140.005,45.000,32101.26721,1.91109,397.963,36.861,45.066,45.000,0.00,0.10,-272.72,-272.79,-4,660,-10,27.8,19.1,2.1,27.5,20.0,2.6,5.73,1.58,4.1,31.3
2015-07-02 00:14:00,0.0,1.89286,0.00022,393.384,0.055,0.9356,0.0049,139.994,45.000,32098.37357,1.91084,397.949,36.866,45.066,45.000,0.00,0.10,-272.71,-272.77,-2,659,-10,27.8,19.0,2.0,27.5,20.1,2.6,5.73,1.70,4.1,31.3
2015-07-02 00:15:00,0.0,1.89278,0.00037,393.436,0.043,0.9297,0.0016,139.999,45.000,32098.04150,1.91061,397.963,36.826,45.066,45.000,0.00,0.10,-272.72,-272.78,-3,659,-10,27.8,18.9,2.0,27.5,20.1,2.6,5.73,1.84,4.1,31.3
2015-07-02 00:16:00,0.0,1.89313,0.00049,393.474,0.038,0.9237,0.0022,140.000,45.000,32099.37381,1.91084,397.978,36.830,45.067,45.000,0.00,0.10,-272.72,-272.78,-4,659,-10,27.8,18.8,1.9,27.5,20.1,2.6,5.73,1.66,4.0,31.3
2015-07-02 00:17:00,0.0,1.89311,0.00039,393.401,0.047,0.9249,0.0021,140.000,45.000,32097.55104,1.91083,397.908,36.833,45.067,45.000,0.00,0.10,-272.71,-272.78,-2,659,-10,27.8,18.8,1.9,27.5,20.2,2.7,5.73,1.60,4.1,31.3
2015-07-02 00:18:00,0.0,1.89291,0.00032,393.356,0.052,0.9278,0.0028,139.999,45.000,32094.57846,1.91079,397.877,36.816,45.067,45.000,0.00,0.10,-272.72,-272.78,-4,659,-10,27.8,18.9,2.0,27.5,20.2,2.7,5.73,1.81,4.1,31.3
2015-07-02 00:19:00,0.0,1.89271,0.00030,393.347,0.047,0.9289,0.0037,140.000,45.000,32096.38241,1.91051,397.878,36.837,45.067,45.000,0.00,0.10,-272.72,-272.79,-4,659,-10,27.8,18.9,2.0,27.5,20.2,2.7,5.73,1.77,4.0,31.3
2015-07-02 00:20:00,0.0,1.89263,0.00043,393.387,0.031,0.9278,0.0032,140.001,45.000,32096.11737,1.91044,397.906,36.848,45.066,45.000,0.00,0.10,-272.71,-272.78,-3,659,-10,27.8,19.0,2.0,27.5,20.2,2.7,5.73,1.58,4.1,31.3
2015-07-02 00:21:00,0.0,1.89246,0.00033,393.299,0.047,0.9267,0.0051,140.002,45.000,32098.40413,1.91021,397.817,36.871,45.066,45.000,0.00,0.10,-272.71,-272.77,-3,660,-10,27.8,18.8,1.9,27.5,20.3,2.7,5.73,1.70,4.0,31.2
2015-07-02 00:22:00,0.0,1.89299,0.00027,393.280,0.074,0.9221,0.0041,140.006,45.000,32099.75335,1.91069,397.772,36.874,45.066,45.000,0.00,0.10,-272.72,-272.78,-4,659,-10,27.8,18.9,1.9,27.5,20.3,2.7,5.73,1.84,4.0,31.3
2015-07-02 00:23:00,0.0,1.89261,0.00035,393.320,0.037,0.9403,0.0058,140.002,45.000,32095.94904,1.91066,397.900,36.875,45.066,45.000,0.00,0.10,-272.72,-272.78,-2,659,-10,27.8,19.3,2.2,27.5,20.3,2.7,5.73,1.66,4.0,31.3
2015-07-02 00:24:00,0.0,1.89240,0.00030,393.316,0.039,0.9440,0.0028,140.001,45.000,32093.29803,1.91050,397.919,36.876,45.066,44.999,0.00,0.10,-272.72,-272.78,-4,659,-10,27.8,19.2,2.2,27.5,20.3,2.7,5.73,1.60,4.0,31.3
2015-07-02 00:25:00,0.0,1.89233,0.00038,393.317,0.061,0.9361,0.0026,139.998,45.000,32088.98796,1.91031,397.879,36.878,45.066,45.000,0.00,0.10,-272.72,-272.78,-4,658,-10,27.8,19.1,2.1,27.5,20.3,2.7,5.73,1.81,4.0,31.3
2015-07-02 00:26:00,0.0,1.89244,0.00042,393.303,0.052,0.9370,0.0059,140.003,45.000,32090.97784,1.91040,397.870,36.861,45.066,45.000,0.00,0.10,-272.72,-272.78,-3,659,-10,27.8,19.0,2.1,27.5,20.3,2.7,5.73,1.77,4.0,31.2
2015-07-02 00:27:00,0.0,1.89273,0.00035,393.332,0.036,0.9273,0.0027,139.999,45.000,32088.34885,1.91055,397.854,36.815,45.066,45.000,0.00,0.10,-272.71,-272.78,-4,659,-10,27.8,18.9,2.0,27.5,20.3,2.7,5.73,1.58,4.0,31.2
2015-07-02 00:28:00,0.0,1.89246,0.00026,393.232,0.064,0.9275,0.0019,139.999,45.000,32084.15277,1.91024,397.748,36.797,45.066,45.000,0.00,0.10,-272.71,-272.78,-4,658,-10,27.7,18.9,1.9,27.5,20.3,2.7,5.73,1.70,4.0,31.2
2015-07-02 00:29:00,0.0,1.89265,0.00050,393.317,0.051,0.9362,0.0046,139.995,45.000,32082.54208,1.91059,397.880,36.768,45.066,45.000,0.00,0.10,-272.72,-272.78,-3,658,-10,27.7,19.1,2.1,27.5,20.3,2.7,5.73,1.84,4.0,31.2
2015-07-02 00:30:00,0.0,1.89262,0.00037,393.314,0.050,0.9330,0.0024,140.001,45.000,32083.31062,1.91054,397.862,36.751,45.067,45.000,0.00,0.10,-272.72,-272.78,-5,658,-10,27.7,19.1,2.0,27.4,20.3,2.6,5.73,1.64,4.0,31.2
2015-07-02 00:31:00,0.0,1.89263,0.00035,393.231,0.087,0.9360,0.0060,140.003,45.000,32082.53746,1.91057,397.793,36.749,45.067,45.000,0.00,0.10,-272.71,-272.78,-4,658,-10,27.7,19.2,2.2,27.4,20.3,2.7,5.73,1.61,4.0,31.2
2015-07-02 00:32:00,0.0,1.89228,0.00042,393.196,0.016,0.9453,0.0018,140.001,45.000,32077.57553,1.91049,397.803,36.739,45.067,45.000,0.00,0.10,-272.72,-272.78,-4,658,-10,27.7,19.3,2.2,27.4,20.3,2.6,5.73,1.83,4.0,31.2
2015-07-02 00:33:00,0.0,1.89209,0.00032,393.226,0.036,0.9505,0.0036,140.000,45.000,32079.84145,1.91032,397.860,36.695,45.066,45.000,0.00,0.10,-272.72,-272.79,-5,658,-10,27.7,19.4,2.3,27.4,20.3,2.6,5.73,1.73,4.0,31.1
2015-07-02 00:34:00,0.0,1.89244,0.00037,393.300,0.056,0.9356,0.0046,140.002,45.000,32081.51171,1.91039,397.859,36.700,45.066,45.000,0.00,0.10,-272.71,-272.78,-3,658,-10,27.7,19.1,2.1,27.4,20.3,2.6,5.73,1.57,3.9,31.2
2015-07-02 00:35:00,0.0,1.89212,0.00038,393.209,0.036,0.9398,0.0022,139.998,45.000,32078.18592,1.91018,397.792,36.688,45.066,45.000,0.00,0.10,-272.71,-272.78,-4,658,-10,27.7,19.3,2.1,27.4,20.3,2.6,5.73,1.77,3.9,31.1
2015-07-02 00:36:00,0.0,1.89210,0.00038,393.209,0.047,0.9439,0.0032,139.998,45.000,32074.75722,1.91018,397.808,36.668,45.066,45.000,0.00,0.10,-272.72,-272.79,-5,658,-10,27.7,19.4,2.2,27.4,20.3,2.6,5.73,1.80,3.9,31.1
2015-07-02 00:37:00,0.0,1.89201,0.00042,393.230,0.046,0.9421,0.0027,140.000,45.000,32077.65895,1.91008,397.821,36.633,45.066,45.000,0.00,0.10,-272.72,-272.78,-3,659,-10,27.7,19.3,2.1,27.4,20.3,2.6,5.73,1.58,3.9,31.1
2015-07-02 00:38:00,0.0,1.89204,0.00059,393.237,0.046,0.9389,0.0049,139.996,45.000,32075.38810,1.91004,397.815,36.627,45.066,45.000,0.00,0.10,-272.71,-272.78,-4,658,-10,27.7,19.2,2.1,27.4,20.3,2.6,5.73,1.70,3.9,31.1
2015-07-02 00:39:00,0.0,1.89240,0.00027,393.267,0.040,0.9371,0.0039,140.000,45.000,32076.68158,1.91037,397.833,36.623,45.066,45.000,0.00,0.10,-272.72,-272.78,-4,659,-10,27.7,19.2,2.1,27.4,20.3,2.7,5.73,1.84,3.9,31.1
2015-07-02 00:40:00,0.0,1.89252,0.00052,393.231,0.030,0.9380,0.0021,140.001,45.000,32073.99699,1.91054,397.804,36.603,45.066,45.000,0.00,0.10,-272.72,-272.78,-3,658,-10,27.7,19.2,2.1,27.4,20.3,2.7,5.73,1.63,3.9,31.1
2015-07-02 00:41:00,0.0,1.89225,0.00056,393.201,0.063,0.9450,0.0054,140.001,45.000,32076.55680,1.91038,397.808,36.585,45.066,45.000,0.00,0.10,-272.71,-272.77,-5,659,-10,27.7,19.4,2.3,27.4,20.3,2.6,5.73,1.63,3.8,31.1
2015-07-02 00:42:00,0.0,1.89223,0.00039,393.168,0.028,0.9414,0.0038,140.004,45.000,32075.63290,1.91028,397.754,36.566,45.066,45.000,0.00,0.10,-272.72,-272.78,-4,659,-10,27.6,19.4,2.2,27.3,20.3,2.6,5.73,1.85,3.9,31.1
2015-07-02 00:43:00,0.0,1.89215,0.00043,393.141,0.029,0.9487,0.0030,139.998,45.000,32075.73626,1.91038,397.765,36.528,45.066,45.000,0.00,0.10,-272.72,-272.78,-3,659,-10,27.6,19.6,2.3,27.4,20.4,2.7,5.73,1.68,3.8,31.0
2015-07-02 00:44:00,0.0,1.89212,0.00038,393.110,0.039,0.9498,0.0034,139.998,45.000,32072.32793,1.91036,397.743,36.530,45.066,45.000,0.00,0.10,-272.72,-272.78,-5,659,-10,27.6,19.5,2.3,27.3,20.4,2.6,5.73,1.59,3.8,31.0
2015-07-02 00:45:00,0.0,1.89179,0.00053,393.148,0.041,0.9460,0.0021,140.002,45.000,32077.03668,1.90993,397.758,36.522,45.066,45.000,0.00,0.10,-272.72,-272.78,-3,659,-10,27.6,19.5,2.2,27.3,20.4,2.7,5.73,1.83,3.8,30.9
2015-07-02 00:46:00,0.0,1.89222,0.00051,393.119,0.049,0.9399,0.0049,140.000,45.000,32078.26161,1.91025,397.698,36.500,45.066,45.000,0.00,0.10,-272.72,-272.79,-4,659,-10,27.6,19.3,2.1,27.3,20.4,2.6,5.73,1.74,3.8,30.9
2015-07-02 00:47:00,0.0,1.89214,0.00035,393.097,0.029,0.9509,0.0054,139.997,45.000,32073.05481,1.91041,397.730,36.480,45.066,45.000,0.00,0.10,-272.72,-272.79,-4,659,-10,27.6,19.7,2.4,27.3,20.4,2.7,5.73,1.57,3.8,30.9
2015-07-02 00:48:00,0.0,1.89155,0.00035,393.059,0.055,0.9622,0.0038,139.998,45.000,32070.11151,1.91001,397.750,36.438,45.066,45.000,0.00,0.10,-272.71,-272.79,-3,659,-10,27.6,19.9,2.5,27.3,20.4,2.6,5.73,1.79,3.8,30.9
2015-07-02 00:49:00,0.0,1.89191,0.00029,393.129,0.036,0.9589,0.0036,140.002,45.000,32069.48958,1.91035,397.803,36.402,45.067,45.000,0.00,0.10,-272.72,-272.78,-4,659,-10,27.6,19.8,2.5,27.3,20.4,2.6,5.73,1.78,3.7,30.9
2015-07-02 00:50:00,0.0,1.89195,0.00031,393.102,0.044,0.9577,0.0054,139.998,45.000,32068.32277,1.91031,397.773,36.375,45.067,45.000,0.00,0.10,-272.72,-272.79,-4,659,-10,27.5,19.7,2.4,27.3,20.4,2.6,5.73,1.57,3.7,30.9
2015-07-02 00:51:00,0.0,1.89199,0.00033,393.085,0.035,0.9595,0.0023,139.999,45.000,32069.43725,1.91039,397.762,36.354,45.067,45.000,0.00,0.10,-272.72,-272.78,-3,659,-10,27.5,19.9,2.5,27.3,20.4,2.6,5.73,1.75,3.7,30.9
2015-07-02 00:52:00,0.0,1.89205,0.00038,393.021,0.040,0.9601,0.0019,140.004,45.000,32071.47139,1.91053,397.702,36.317,45.067,45.001,0.00,0.10,-272.72,-272.78,-4,659,-10,27.5,19.9,2.5,27.2,20.5,2.6,5.73,1.82,3.7,30.8
2015-07-02 00:53:00,0.0,1.89173,0.00049,392.963,0.051,0.9679,0.0035,140.005,45.000,32071.12502,1.91028,397.680,36.333,45.067,45.001,0.00,0.10,-272.72,-272.78,-3,659,-10,27.5,20.1,2.6,27.2,20.5,2.6,5.73,1.58,3.7,30.8
2015-07-02 00:54:00,0.0,1.89157,0.00043,392.912,0.054,0.9765,0.0047,139.998,45.000,32063.60168,1.91034,397.671,36.321,45.067,45.000,0.00,0.10,-272.71,-272.78,-4,659,-10,27.5,20.3,2.7,27.2,20.5,2.6,5.73,1.70,3.7,30.9
2015-07-02 00:55:00,0.0,1.89154,0.00039,392.961,0.038,0.9784,0.0029,139.997,45.000,32061.68204,1.91033,397.735,36.335,45.067,45.000,0.00,0.10,-272.72,-272.78,-4,659,-10,27.5,20.2,2.7,27.2,20.5,2.7,5.73,1.84,3.7,30.8
2015-07-02 00:56:00,0.0,1.89143,0.00029,392.984,0.064,0.9654,0.0046,140.002,45.000,32065.21974,1.90997,397.689,36.336,45.067,45.000,0.00,0.10,-272.72,-272.78,-3,659,-10,27.5,20.0,2.6,27.2,20.6,2.7,5.73,1.61,3.7,30.9
2015-07-02 00:57:00,0.0,1.89128,0.00045,392.987,0.066,0.9688,0.0053,140.008,45.000,32064.07768,1.90987,397.709,36.332,45.066,45.000,0.00,0.10,-272.72,-272.78,-4,659,-10,27.5,20.1,2.6,27.2,20.6,2.7,5.73,1.65,3.7,30.8
2015-07-02 00:58:00,0.0,1.89120,0.00040,392.961,0.060,0.9702,0.0045,140.006,45.000,32068.77895,1.90984,397.696,36.362,45.066,45.000,0.00,0.10,-272.72,-272.78,-3,659,-10,27.5,20.1,2.6,27.2,20.6,2.7,5.73,1.85,3.6,30.9
2015-07-02 00:59:00,0.0,1.89107,0.00040,392.905,0.063,0.9691,0.0084,140.001,45.000,32068.70261,1.90971,397.629,36.350,45.066,44.999,0.00,0.10,-272.72,-272.78,-3,660,-10,27.5,20.3,2.7,27.2,20.6,2.7,5.73,1.65,3.6,30.9
2015-07-02 01:00:00,0.0,1.89073,0.00028,392.769,0.056,0.9855,0.0026,140.007,45.000,32066.91599,1.90962,397.572,36.336,45.066,44.999,0.00,0.10,-272.72,-272.79,-4,659,-10,27.5,20.5,2.9,27.2,20.6,2.7,5.73,1.61,3.6,30.8
2015-07-02 01:01:00,0.0,1.89057,0.00044,392.877,0.038,0.9912,0.0024,140.004,45.000,32065.30551,1.90966,397.709,36.314,45.066,44.999,0.00,0.10,-272.71,-272.78,-3,659,-10,27.5,20.5,2.9,27.2,20.6,2.7,5.73,1.84,3.6,30.8
2015-07-02 01:02:00,0.0,1.89097,0.00031,392.934,0.041,0.9730,0.0058,139.997,45.000,32064.71201,1.90962,397.681,36.313,45.066,45.000,0.00,0.10,-272.72,-272.78,-3,659,-10,27.5,20.2,2.6,27.2,20.7,2.7,5.73,1.70,3.6,30.8
2015-07-02 01:03:00,0.0,1.89067,0.00047,392.844,0.099,0.9784,0.0053,140.003,45.000,32065.39571,1.90947,397.613,36.313,45.066,45.000,0.00,0.10,-272.71,-272.79,-4,659,-10,27.5,20.4,2.8,27.2,20.7,2.7,5.73,1.58,3.6,30.8
2015-07-02 01:04:00,0.0,1.89033,0.00054,392.867,0.067,0.9853,0.0067,140.005,45.000,32065.81812,1.90922,397.672,36.310,45.066,45.000,0.00,0.10,-272.72,-272.78,-3,659,-10,27.5,20.4,2.8,27.1,20.7,2.7,5.73,1.82,3.6,30.8
2015-07-02 01:05:00,0.0,1.89071,0.00031,392.909,0.064,0.9738,0.0026,140.000,45.000,32063.97059,1.90945,397.662,36.306,45.066,45.000,0.00,0.10,-272.72,-272.77,-4,659,-10,27.4,20.2,2.7,27.1,20.8,2.7,5.73,1.75,3.6,30.8
2015-07-02 01:06:00,0.0,1.89029,0.00035,392.868,0.064,0.9787,0.0051,140.000,45.000,32063.95830,1.90907,397.638,36.303,45.066,45.000,0.00,0.10,-272.72,-272.78,-3,659,-10,27.4,20.4,2.8,27.1,20.8,2.8,5.73,1.57,3.6,30.8
2015-07-02 01:07:00,0.0,1.89011,0.00035,392.851,0.055,0.9871,0.0036,139.998,45.000,32064.64772,1.90903,397.666,36.311,45.067,45.000,0.00,0.10,-272.72,-272.79,-3,659,-10,27.4,20.6,2.9,27.1,20.8,2.8,5.73,1.78,3.5,30.8
2015-07-02 01:08:00,0.0,1.89030,0.00049,392.807,0.028,0.9820,0.0025,139.998,45.000,32067.34892,1.90916,397.596,36.310,45.066,45.000,0.00,0.10,-272.72,-272.78,-4,659,-10,27.4,20.6,2.8,27.1,20.9,2.8,5.73,1.79,3.6,30.8
2015-07-02 01:09:00,0.0,1.89009,0.00031,392.821,0.069,0.9888,0.0028,140.000,45.000,32066.93937,1.90912,397.642,36.313,45.066,45.000,0.00,0.10,-272.72,-272.78,-3,659,-10,27.4,20.6,2.8,27.1,20.9,2.8,5.73,1.57,3.5,30.8
2015-07-02 01:10:00,0.0,1.88982,0.00051,392.865,0.058,0.9778,0.0052,140.001,45.000,32065.50963,1.90856,397.631,36.307,45.066,45.000,0.00,0.10,-272.71,-272.78,-4,659,-10,27.4,20.4,2.7,27.1,20.9,2.8,5.73,1.74,3.5,30.8
2015-07-02 01:11:00,0.0,1.89038,0.00032,392.855,0.038,0.9776,0.0029,140.001,45.000,32070.45719,1.90913,397.622,36.286,45.066,45.000,0.00,0.10,-272.72,-272.78,-4,660,-10,27.4,20.4,2.7,27.1,20.9,2.9,5.73,1.82,3.5,30.7
2015-07-02 01:12:00,0.0,1.89045,0.00046,392.724,0.044,0.9828,0.0052,139.999,45.000,32068.07475,1.90934,397.514,36.256,45.066,45.000,0.00,0.10,-272.72,-272.78,-3,659,-10,27.4,20.7,2.9,27.1,21.0,2.9,5.73,1.58,3.5,30.8
2015-07-02 01:13:00,0.0,1.88991,0.00032,392.732,0.081,1.0001,0.0047,140.000,45.000,32065.69440,1.90911,397.608,36.248,45.066,45.000,0.00,0.10,-272.72,-272.79,-4,659,-10,27.4,20.9,3.1,27.1,21.0,2.9,5.73,1.71,3.5,30.8
2015-07-02 01:14:00,0.0,1.88987,0.00040,392.813,0.053,0.9918,0.0060,140.002,45.000,32067.68341,1.90891,397.652,36.244,45.067,45.000,0.00,0.10,-272.72,-272.78,-3,659,-10,27.4,20.7,2.9,27.1,21.0,2.9,5.73,1.84,3.5,30.8
2015-07-02 01:15:00,0.0,1.88991,0.00040,392.798,0.100,0.9866,0.0068,139.995,45.000,32062.97053,1.90885,397.609,36.240,45.067,45.000,0.00,0.10,-272.71,-272.78,-3,659,-10,27.4,20.7,2.9,27.1,21.0,2.9,5.73,1.59,3.5,30.8
2015-07-02 01:16:00,0.0,1.88975,0.00035,392.792,0.042,0.9951,0.0040,140.002,45.000,32065.11506,1.90885,397.642,36.227,45.067,45.000,0.00,0.10,-272.72,-272.79,-4,659,-10,27.4,20.9,3.0,27.1,21.1,2.9,5.73,1.68,3.5,30.8
2015-07-02 01:17:00,0.0,1.88979,0.00027,392.831,0.056,0.9937,0.0037,139.997,45.000,32066.61442,1.90888,397.679,36.229,45.067,45.000,0.00,0.10,-272.72,-272.78,-2,660,-10,27.4,20.9,3.0,27.1,21.1,2.9,5.73,1.85,3.5,30.8
2015-07-02 01:18:00,0.0,1.88932,0.00058,392.647,0.077,1.0052,0.0015,140.002,45.000,32066.09407,1.90861,397.550,36.242,45.067,45.000,0.00,0.10,-272.72,-272.78,-4,660,-10,27.3,21.2,3.2,27.1,21.1,2.9,5.73,1.62,3.5,30.8
2015-07-02 01:19:00,0.0,1.88861,0.00056,392.646,0.065,1.0231,0.0068,140.004,45.000,32066.63667,1.90833,397.639,36.250,45.067,45.000,0.00,0.10,-272.72,-272.78,-4,659,-10,27.3,21.5,3.4,27.0,21.2,2.9,5.73,1.65,3.5,30.7
2015-07-02 01:20:00,0.0,1.88855,0.00040,392.714,0.075,1.0124,0.0025,139.999,45.000,32069.29583,1.90798,397.658,36.248,45.066,45.000,0.00,0.10,-272.73,-272.79,-2,660,-10,27.3,21.2,3.2,27.0,21.2,3.0,5.73,1.85,3.4,30.7
2015-07-02 01:21:00,0.0,1.88854,0.00055,392.668,0.085,1.0070,0.0079,139.996,45.000,32070.70240,1.90784,397.579,36.250,45.066,45.000,0.00,0.10,-272.72,-272.78,-4,660,-10,27.3,21.3,3.3,27.0,21.2,2.9,5.73,1.63,3.4,30.7
2015-07-02 01:22:00,0.0,1.88846,0.00051,392.568,0.030,1.0239,0.0029,139.998,45.000,32068.88326,1.90815,397.561,36.233,45.066,45.000,0.00,0.10,-272.71,-272.78,-2,660,-10,27.3,21.6,3.5,27.0,21.2,3.0,5.73,1.64,3.4,30.7
2015-07-02 01:23:00,0.0,1.88841,0.00041,392.508,0.070,1.0338,0.0022,139.999,45.000,32071.05915,1.90825,397.556,36.202,45.067,45.000,0.00,0.10,-272.72,-272.78,-3,660,-10,27.3,21.8,3.6,27.0,21.3,3.0,5.73,1.85,3.4,30.7
2015-07-02 01:24:00,0.0,1.88819,0.00037,392.552,0.090,1.0280,0.0069,139.999,45.000,32068.66540,1.90797,397.567,36.196,45.067,45.000,0.00,0.10,-272.72,-272.78,-4,660,-10,27.3,21.6,3.4,27.0,21.3,3.0,5.73,1.65,3.4,30.7
2015-07-02 01:25:00,0.0,1.88827,0.00048,392.649,0.052,1.0131,0.0104,139.997,45.000,32068.07856,1.90776,397.594,36.227,45.067,45.000,0.00,0.10,-272.71,-272.78,-2,660,-10,27.3,21.2,3.1,27.0,21.3,3.0,5.73,1.62,3.4,30.6
2015-07-02 01:26:00,0.0,1.88840,0.00033,392.670,0.080,1.0108,0.0058,140.002,45.000,32069.52484,1.90774,397.600,36.210,45.067,45.000,0.00,0.10,-272.72,-272.78,-4,660,-10,27.3,21.2,3.2,27.0,21.3,3.0,5.73,1.85,3.4,30.7
2015-07-02 01:27:00,0.0,1.88851,0.00035,392.694,0.066,1.0018,0.0031,140.001,45.000,32070.42702,1.90775,397.584,36.190,45.067,45.000,0.00,0.10,-272.72,-272.79,-3,660,-10,27.3,21.1,3.1,27.0,21.4,3.0,5.73,1.66,3.4,30.7
2015-07-02 01:28:00,0.0,1.88829,0.00034,392.656,0.050,1.0020,0.0059,140.001,45.000,32069.81932,1.90755,397.541,36.188,45.067,45.000,0.00,0.10,-272.71,-272.79,-3,660,-10,27.3,21.2,3.2,27.0,21.4,3.0,5.73,1.61,3.4,30.6
2015-07-02 01:29:00,0.0,1.88776,0.00031,392.649,0.067,1.0077,0.0053,140.000,45.000,32071.48718,1.90712,397.566,36.188,45.067,45.000,0.00,0.10,-272.71,-272.79,-4,660,-10,27.3,21.2,3.2,27.0,21.4,3.1,5.73,1.86,3.4,30.6
2015-07-02 01:30:00,0.0,1.88753,0.00040,392.684,0.081,1.0044,0.0031,140.000,45.000,32071.71294,1.90679,397.582,36.188,45.067,45.000,0.00,0.10,-272.72,-272.79,-2,660,-10,27.3,21.2,3.2,26.9,21.5,3.1,5.73,1.66,3.4,30.6
2015-07-02 01:31:00,0.0,1.88764,0.00043,392.715,0.058,1.0010,0.0053,140.000,45.000,32068.14901,1.90684,397.595,36.190,45.067,45.000,0.00,0.10,-272.72,-272.78,-4,660,-10,27.2,21.0,3.0,27.0,21.5,3.1,5.73,1.61,3.4,30.6
2015-07-02 01:32:00,0.0,1.88733,0.00049,392.763,0.033,0.9943,0.0021,139.998,44.999,32067.57211,1.90642,397.614,36.196,45.067,45.000,0.00,0.10,-272.72,-272.78,-3,660,-10,27.2,20.9,2.9,26.9,21.6,3.1,5.73,1.85,3.4,30.6
2015-07-02 01:33:00,0.0,1.88676,0.00041,392.756,0.033,0.9867,0.0025,140.001,45.000,32067.26391,1.90571,397.569,36.189,45.067,45.000,0.00,0.10,-272.73,-272.78,-3,660,-10,27.2,20.8,2.9,26.9,21.6,3.1,5.73,1.68,3.4,30.6
2015-07-02 01:34:00,0.0,1.88633,0.00033,392.704,0.064,0.9894,0.0044,139.999,45.000,32070.28639,1.90532,397.530,36.153,45.066,45.000,0.00,0.10,-272.72,-272.79,-4,660,-10,27.2,21.0,3.0,26.9,21.6,3.2,5.73,1.60,3.4,30.6
2015-07-02 01:35:00,0.0,1.88602,0.00040,392.528,0.112,0.9932,0.0023,139.999,45.000,32067.63583,1.90506,397.371,36.127,45.067,45.000,0.00,0.10,-272.72,-272.78,-2,660,-10,27.2,21.0,3.0,26.9,21.7,3.2,5.73,1.85,3.4,30.6
2015-07-02 01:36:00,0.0,1.88538,0.00039,392.581,0.030,0.9951,0.0036,140.001,45.000,32071.85430,1.90445,397.431,36.125,45.067,45.000,0.00,0.10,-272.72,-272.78,-3,661,-10,27.2,20.9,2.9,26.9,21.7,3.2,5.73,1.69,3.4,30.5
2015-07-02 01:37:00,0.0,1.88597,0.00046,392.717,0.081,0.9637,0.0083,140.003,45.000,32069.99416,1.90440,397.412,36.125,45.067,45.000,0.00,0.10,-272.72,-272.79,-3,660,-10,27.2,20.2,2.4,26.9,21.7,3.2,5.73,1.60,3.4,30.5
2015-07-02 01:38:00,0.0,1.88595,0.00056,392.760,0.051,0.9657,0.0050,140.000,45.000,32072.22338,1.90448,397.468,36.134,45.067,45.000,0.00,0.10,-272.72,-272.78,-2,661,-10,27.2,20.4,2.6,26.9,21.7,3.2,5.73,1.85,3.3,30.6
2015-07-02 01:39:00,0.0,1.88581,0.00035,392.627,0.057,0.9619,0.0026,140.000,45.000,32075.75996,1.90421,397.315,36.176,45.067,45.000,0.00,0.10,-272.72,-272.78,-3,661,-10,27.2,20.3,2.5,26.9,21.8,3.2,5.73,1.70,3.4,30.6
2015-07-02 01:40:00,0.0,1.88544,0.00055,392.517,0.061,0.9739,0.0094,140.000,45.000,32077.02252,1.90411,397.258,36.188,45.067,45.000,0.00,0.10,-272.72,-272.79,-2,661,-10,27.2,20.8,2.8,26.9,21.8,3.2,5.73,1.59,3.3,30.6
2015-07-02 01:41:00,0.0,1.88495,0.00026,392.487,0.061,0.9833,0.0049,140.001,45.000,32077.23292,1.90375,397.278,36.189,45.067,45.000,0.00,0.10,-272.72,-272.79,-2,661,-10,27.2,20.8,2.8,26.9,21.8,3.2,5.73,1.84,3.3,30.6
2015-07-02 01:42:00,0.0,1.88501,0.00034,392.513,0.032,0.9769,0.0027,140.000,45.000,32073.04424,1.90377,397.272,36.214,45.066,45.000,0.00,0.10,-272.71,-272.78,-3,661,-10,27.2,20.7,2.7,26.9,21.8,3.2,5.73,1.72,3.3,30.6
2015-07-02 01:43:00,0.0,1.88403,0.00033,392.538,0.044,0.9779,0.0027,140.001,45.000,32076.33667,1.90276,397.300,36.199,45.066,45.000,0.00,0.10,-272.72,-272.79,-2,661,-10,27.2,20.7,2.7,26.9,21.8,3.2,5.73,1.58,3.3,30.6
2015-07-02 01:44:00,0.0,1.88418,0.00030,392.560,0.044,0.9666,0.0036,140.005,45.000,32078.96302,1.90267,397.272,36.188,45.066,45.000,0.00,0.10,-272.73,-272.79,-3,661,-10,27.2,20.4,2.5,26.9,21.8,3.2,5.73,1.83,3.3,30.6
2015-07-02 01:45:00,0.0,1.88394,0.00033,392.526,0.051,0.9638,0.0033,139.998,45.000,32079.51588,1.90237,397.217,36.187,45.067,45.000,0.00,0.10,-272.72,-272.77,-3,661,-10,27.1,20.5,2.6,26.9,21.8,3.2,5.73,1.74,3.3,30.6
2015-07-02 01:46:00,0.0,1.88361,0.00034,392.455,0.026,0.9717,0.0023,140.003,45.000,32081.33479,1.90221,397.187,36.178,45.067,45.000,0.00,0.10,-272.72,-272.78,-2,661,-10,27.1,20.6,2.7,26.9,21.7,3.2,5.73,1.57,3.3,30.6
2015-07-02 01:47:00,0.0,1.88330,0.00040,392.446,0.065,0.9712,0.0022,140.002,45.000,32080.43671,1.90186,397.177,36.153,45.067,45.000,0.00,0.10,-272.73,-272.79,-3,661,-10,27.1,20.6,2.6,26.9,21.7,3.2,5.73,1.82,3.3,30.6